Tracking 27380 objects as of 5-Jun-2023
HD Live streaming from Space Station
objects crossing your sky now

DELTA 1 DEB

Track DELTA 1 DEB now!
10-day predictions


NORAD ID: 39095
Int'l Code: 1973-086HH
Perigee: 1,505.6 km
Apogee: 1,600.2 km
Inclination: 102.5 °
Period: 117.0 minutes
Semi major axis: 7923 km
RCS: 0.0177 m2 (small)
Launch date: November 6, 1973
Source: United States (US)
Launch site: AIR FORCE WESTERN TEST RANGE (AFWTR)

Note: This is SATELLITE DEBRIS
Your satellite tracking list
Your tracking list is empty




NASA's NSSDC Master Catalog

Two Line Element Set (TLE):
1 39095U 73086HH  23155.26915240  .00000008  00000-0  45370-3 0  9995
2 39095 102.4718 148.2284 0059660  63.7688 296.9485 12.30824634441009
Source of the keplerian elements: AFSPC